Résultats de la compétition "Régionale 7 Dourdan" du 13-12-2009 organisée par le comité départemental du 91 - Essonne
     
  Télécharger le fichier CSV.  
     
     

 Circuit "Jalonné"

Licence Nom Prénom Temps CN
précédent
Score sur
la course
Différence
19099PANNIERAxel0:20:00N/A2120N/A
19375MERIGUETEmilie0:31:38N/A1340N/A
20662FEIGNIEREric0:39:46N/A1066N/A
17521BLANCHONNicolas0:42:48N/A990N/A
20417LEMAIREEnzo0:44:55N/A944N/A
16689ROGERAnton0:46:44N/A907N/A
17114LEROUZICMaelle1:00:05N/A706N/A
20628DESGRANGESLiv1:04:37N/A656N/A
19095LEMAIRECléoN/AN/A0N/A

  Indice de confiance du circuit (moyenne des différences entre CN et score sur la course des 3 à 10 premiers) : 490




 Circuit "parcours F"

Licence Nom Prénom Temps CN
précédent
Score sur
la course
Différence
20664ERBLANDThibault0:17:10N/A2799N/A
16688PANNIERQuentin0:20:4022762325+49
12561ESTIVALSolene0:21:46N/A2208N/A
11311GARNIER-BARSANTIClara0:22:3813912123+732
20660ELVERJudith0:23:51N/A2015N/A
22575DREANOBenjamin0:28:48N/A1668N/A
22494ERBLANDThomas0:29:10N/A1647N/A
21066BLANCHONLaurent0:29:55N/A1606N/A
16687MERIGUETValerie0:30:0517121597-115
17522BLANCHONAlexandre0:33:16N/A1444N/A
15248HEROUARDYuri0:35:55N/A1338N/A
17308BESTELArnault0:37:5823451266-1079
20502PEUREYLoann0:38:49N/A1238N/A
20717GARINPaul0:42:26N/A1132N/A
22495ERBLANDPierre0:43:19N/A1109N/A
17085LOUVETTheo0:48:27N/A992N/A
17083LOUVETAlexandra0:48:28N/A991N/A
21305COMBATAlexandre0:52:58N/A907N/A
17772DESGRANGESTristan0:54:39982879-103
20659FEIGNIERNathalie1:01:09N/A786N/A
22359LAMBERT GrégoireN/AN/A0N/A

  Indice de confiance du circuit (moyenne des différences entre CN et score sur la course des 3 à 10 premiers) : 325




 Circuit "parcours E"

Licence Nom Prénom Temps CN
précédent
Score sur
la course
Différence
14681ROGERAymeric0:26:5831734094+921
10303BEAUDENONCedric0:27:5942963945-351
12560ESTIVALThierry0:29:1628943772+878
11559ROULLEAUXJulie0:29:2032623764+502
4372PETITGuyonne0:29:4244983717-781
17433TREPTELSolene0:29:5534933690+197
21279LIGNEREUX-BRAULTMarie-christine0:30:16N/A3647N/A
14685MARTYCelia0:31:5723653455+1090
6113GROCClaire0:32:1931713416+245
13926GODEFROYSimon0:32:2725143402+888
14684MERIGUETThomas0:32:4018513380+1529
19345CHARDOTJulia0:33:1416313322+1691
22409GUERINJulien0:34:14N/A3225N/A
22398BONNETVincent0:34:45N/A3177N/A
11305NOY-GSELLArielle0:36:1326413048+407
22539CHARDOTThierry0:37:59N/A2906N/A
8122DEROMEGerard0:40:0441352755-1380
6094LEROUEILM-Paule0:40:2738842729-1155
1380DIEUDONNEMadeleine0:40:5040922704-1388
935TESTOUDPhilippe0:41:0733112685-626
1438BOUSQUETMichel0:42:3533252592-733
295PEETERSSimone0:45:4529602413-547
2124VANNIERVictorine0:48:0127132299-414
10758BESTELSandra0:49:0223172251-66
11037NALONPascale0:49:1517432242+499
14002DUBOISSylvie0:49:2421292235+106
22384VILLAMEUli0:53:08N/A2078N/A
3370GAWSEWITCHGerald0:53:5322572049-208
12377DENISMartine0:57:1523401928-412
1366LEMAIRERoger0:58:1824281894-534
8121LEBIAN DEROMEAnnie0:58:4624291879-550
14761DEBRABANDEREClaudine0:59:0124351871-564
20608SECHIERNadia1:16:46N/A1438N/A
934TESTOUDMadeleine1:24:3820441304-740
22356TUALRobin1:38:23N/A1122N/A

  Indice de confiance du circuit (moyenne des différences entre CN et score sur la course des 3 à 10 premiers) : 342




 Circuit "parcours D"

Licence Nom Prénom Temps CN
précédent
Score sur
la course
Différence
21159WOUTERSDenis0:38:52N/A4954N/A
13391ROGERAlexandre0:40:1145554792+237
10451RAIMBAULTPhilippe0:42:5648264485-341
4879RAUTURIERQuentin0:43:1937774445+668
2119VANNIERBernard0:43:5746174381-236
8922ROULLEAUXNoemie0:45:0044744279-195
20416STEPHANYAntoine0:49:10N/A3916N/A
8551CLOUARDLucile0:49:4441373872-265
2146HAMONPatrick0:49:4544083870-538
13744PAULETGuillaume0:50:4541803794-386
16070RICHINMarion0:51:2634303744+314
8550CLOUARDCamille0:52:2747373671-1066
886GIRECamille0:56:1641243422-702
21021ROLLINRomain0:56:29N/A3409N/A
8920TOUZAIN ROULLEAUXIsabelle0:56:5336573385-272
3195CLETArlette0:58:0033193320+1
1262BEHOTEGUYBernard0:58:1634983305-193
1938LEFRANCOISGerard0:58:3636603286-374
3600LAZAROWICZRichard0:59:1229353252+317
20448DIDOUSusanna1:01:0323133154+841
22763COURTOISJérémy1:01:23N/A3137N/A
3356CHARIAUMichel1:01:5133173113-204
22600CAVALIERHéloïse1:02:03N/A3103N/A
20418PIGEOTSylvie1:02:45N/A3068N/A
7703RORAIsabelle1:04:4036332977-656
3354BONNEAUCatherine1:06:2730482898-150
18140AUBERTFabrice1:06:3422902892+602
3200RAUTURIERNathalie1:06:3833572890-467
14946LEVREUXNathalie1:06:4732002883-317
1379CRENNChristian1:08:5229802796-184
10843BLINGwennaelle1:11:36N/A2689N/A
4191GARROSOlivier1:12:3126342655+21
20358COFFEMarie-pierre1:15:2222002555+355
19686GARINGilles1:18:3521362450+314
1381DIEUDONNERoland1:20:4036682387-1281
20384DUTERAGEChristian1:48:00N/A1783N/A
20383DUTERAGECatherine1:48:03N/A1782N/A
16265DHERVEGwenaelleN/A19900-1990
6552FARGANELBenoitN/A29790-2979
11307BEAUVISAGELaurianeN/A43540-4354
22584VERCAMBREJeanneN/AN/A0N/A

  Indice de confiance du circuit (moyenne des différences entre CN et score sur la course des 3 à 10 premiers) : 223




 Circuit "parcours C"

Licence Nom Prénom Temps CN
précédent
Score sur
la course
Différence
4182RAUTURIERMaxime0:38:5747155789+1074
5638TARDYVictor0:41:0451575490+333
19028SCHMIDT-MORGENROTHJacques0:41:5040305390+1360
6961CLOUZEAUJacques0:42:4749235270+347
15093VILLEDIEURemi0:43:0245205239+719
2034BAROUXJacky0:43:3258675179-688
8567BARDESPhilippe0:45:0056705010-660
14024VALENTINTeo0:45:1637944981+1187
4428VERMEERSCHThierry0:45:2646824963+281
16588BESCHFrederic0:45:4247574934+177
8372ROCHERJ-Marc0:46:1255494880-669
6481RORASebastien0:48:1353774676-701
15847BACKSCHEIDEREmilie0:48:3655374639-898
22156RIBIEREmmanuel0:49:18N/A4573N/A
18211BLOTGregory0:49:2136764569+893
8593KLEINPierre0:49:2241704567+397
16117TARDYLaetitia0:49:4351514535-616
14691ROZAND-LELOUPEmmanuel0:50:0340954505+410
1398HERMETAndre0:50:2343174475+158
4847CHASTELBernard0:50:5436404430+790
12226PINAUDMichel0:51:4441744358+184
890GODEFROYRene0:52:2849174297-620
12558DUBOISPhilippe0:52:2948034296-507
14676BORCHORST RICARDClarissa0:52:3942364282+46
8108LELOUPAnouk0:52:4645564273-283
12515VUILLAUMEBertrand0:53:2048524228-624
4592ANTOINE-DELAUMESophie0:53:4943404190-150
3194ESTIVALJ-Luc0:53:5748784179-699
4183RAUTURIERCamille0:56:1860134005-2008
14005ABRIOLDaniel0:57:1725803936+1356
14947JOUVEBernard0:59:1342883808-480
10830BESEGAILuc0:59:2331003797+697
8890BARSANTIPatricia0:59:3437773785+8
1980GIESIMaurice1:00:5836803698+18
22780AUGUSTYNOWICZBrice1:01:04N/A3692N/A
1854GUILLONAlain1:01:5346563643-1013
3355CHARIAUJ-Marc1:01:5737783640-138
14576GAFFURIA-Laure1:02:0431033633+530
11554VERBRUGGHEAlain1:02:09N/A3628N/A
1386LELOUPPhilippe1:04:2143323504-828
4810GROCAlain1:04:3837283488-240
16184FAUQUANTJ-Marie1:06:0631453411+266
18056ADOLPHEPhilippe1:06:1428663404+538
4373BONNEAUMathilde1:06:2136393398-241
11036RAIMBAULTLouis1:07:0239953364-631
12053COUTURIERClaude1:07:0433043362+58
1945PHILIPPOTEtienne1:07:4133363331-5
19674GRANCOINMarc1:08:4527623280+518
20554COFFEDaniel1:09:10N/A3260N/A
17777TREILLARDDominique1:10:3836903192-498
13387DEBRABANDEREGilles1:10:4742643185-1079
22408GOURDINCédric1:11:12N/A3167N/A
639GAZAVEJulien1:11:50N/A3139N/A
19215PASSELERGUEMarianne1:12:1332863122-164
18480PAULETSerge1:12:3140473109-938
17309BESTELFlorence1:13:0732273084-143
884GARDEURJulien1:16:4336142939-675
17986CHAUSSINGilles1:17:14N/A2919N/A
912LOUVETEloise1:17:1732652917-348
9126NOYEyal1:18:4734272862-565
15211PARGONSylvain1:19:1322122846+634
2135COMBATBruno1:20:1427782810+32
22385TOMASSIJean Marc1:20:40N/A2795N/A
16263LEDUCFlorian1:21:20N/A2772N/A
16946POTEAUJimmy1:21:50N/A2755N/A
1929CHINCHOLEPaul1:22:0529872747-240
2160ARLANDISJ-Christoph1:25:3329962636-360
22734SAUVESTREDidier1:31:38N/A2461N/A
22426REICHJean-paul1:34:25N/A2388N/A
21220TAISSONSandrine1:34:39N/A2382N/A
22162BERNARDRaymond1:41:13N/A2228N/A
21973AMIARDRenaud1:41:39N/A2218N/A
10745MAINERoxaneN/A47750-4775
22743REYNAUDJonathanN/AN/A0N/A

  Indice de confiance du circuit (moyenne des différences entre CN et score sur la course des 3 à 10 premiers) : 163




 Circuit "Parcours B"

Licence Nom Prénom Temps CN
précédent
Score sur
la course
Différence
7251GRUSELLEFabien0:55:5757695924+155
2252GROSHENSDidier0:58:1359785693-285
2448SPAETHDaniel0:59:4750205544+524
4181RAUTURIERBenoit1:00:1252105506+296
11475GODEFROYBruno1:00:2554065486+80
10755L'HERITIERJean-Philippe1:01:5760045350-654
6117LESAULTPhilippe1:03:4958845194-690
3201RAUTURIERChristophe1:06:2556864990-696
22399GUILLEMINWilly1:07:30N/A4910N/A
3742JOURDATOlivier1:08:5046644815+151
10751RAOULTPascal1:09:04N/A4799N/A
1382GASTINEAUJ-Francois1:09:1345044788+284
7702RORAJose1:10:1350664720-346
3353BONNEAUPaul1:11:0045504668+118
7437PIGACHEEric1:11:0244144666+252
16508PELLINBertrand1:12:5847694542-227
6488MERATLaurent1:13:0546014535-66
8889GARNIERVincent1:14:2947124450-262
9599THONIERBruno1:14:5746194422-197
17113LEROUZICGwenael1:15:0436274415+788
22548GUIOTAlexis1:15:53N/A4368N/A
20377CADARTYoann1:17:0333034302+999
3160CATALONSebastien1:18:4844214206-215
14921CLAUSSDidier1:19:5142474151-96
16119SENTAGNEFrancois1:20:5447024097-605
14688CARUELFrancois1:20:5442784097-181
21218DANTINChristophe1:21:41N/A4058N/A
11709ROMIEUCyril1:22:43N/A4007N/A
22435LORMEAUStéphane1:23:08N/A3987N/A
10744MAINELaurent1:23:5846813947-734
10811BERREHARAnne1:25:1342563889-367
12846LHERMITTEFrederic1:26:1737373841+104
11476DEBOCQMAINEAgnes1:27:1642893798-491
1977FISCHERFrederic1:27:1940943796-298
12241VIONLudovic1:27:2838193789-30
21472DALLEEric1:27:31N/A3787N/A
14998PINCEBertrand1:27:39N/A3781N/A
11997DELEIRISFlorian1:27:4340283779-249
22313BIBAUTSébastien1:28:00N/A3766N/A
20982CHENOTFranck1:28:41N/A3737N/A
13245POYARDJ-Claude1:28:4237633737-26
16717GAIGNONRichard1:29:4138183696-122
2142NAELPascal1:30:0946493677-972
21184MUGICAYvan1:30:39N/A3656N/A
16267FINAUD-GUYOTLionel1:31:1329523634+682
12733BROYARTDominique1:31:20N/A3629N/A
8548CLOUARDFrederic1:33:0145523563-989
19393HAYERNicolas1:33:4443793536-843
15253DELAVEAUPatrice1:35:2633173473+156
13356THOPARTDavid1:50:18N/A3005N/A
16190FLOQUETPatrick2:00:4331622746-416
11302CARRIELaurent2:05:1629142646-268
20845POUVRASSEAULudovic2:05:18N/A2645N/A
10491FARGANELThierryN/A35760-3576

  Indice de confiance du circuit (moyenne des différences entre CN et score sur la course des 3 à 10 premiers) : 118




 Circuit "Parcours A"

Licence Nom Prénom Temps CN
précédent
Score sur
la course
Différence
2121VANNIERFabrice0:57:2576487009-639
8237RAIMBAULTJuste0:58:4873176844-473
17648DUBURQUOISErwan1:05:5256086110+502
7856BOUDETPierre1:06:5960716008-63
12114PANNIERPascal1:07:5661265924-202
11405LOUVETFranck1:08:3362065871-335
12934THOMASJohann1:08:4061205861-259
4374BONNEAUMaxime1:09:3560365783-253
4768RICARDGael1:11:2758535632-221
11531BRAULTLionel1:12:0754015580+179
4848CHASTELVincent1:13:0246465510+864
12346GAFFURIJulien1:13:0858455503-342
8823LEGUENOlivier1:15:5456335302-331
4178ADRIENChristophe1:16:3142225259+1037
7857BOUDETAdrien1:17:2346905200+510
1978GASNOTLaurent1:18:1656025142-460
7610HEROUARDThierry1:20:0951785021-157
10757MARTELFranck1:20:2461275005-1122
18327NAVILLEThierry1:21:42N/A4926N/A
18959FERNANDES ANTUNESRomeu1:22:4847974860+63
15176QUINQUENELHerve1:22:5144954857+362
19020DUFRESNEFabien1:24:5144134743+330
19094LEMAIREYann-pierrick1:26:3736344646+1012
8508SELLIERJ-Marc1:27:4547594586-173
1433SERGEANTDominique1:29:5846754473-202
2171DEVILLERSChristophe1:31:3832534392+1139
9420BLANDINDenis1:32:2946044351-253
22155GABRIELOlivier1:32:37N/A4345N/A
19558ROCHStephane1:34:0939754274+299
20432JESTINEric1:35:5132974199+902
13677RISSELINNicolas1:42:4932643914+650
19344DAEMAdriaan1:46:3335703777+207
12379MONTAGARDFrederic1:46:5638933763-130
6502WOLOCHYannis1:47:10N/A3755N/A
14800DAMBRINEFabrice1:48:0036133726+113
20466MORANDJean-philippe1:49:5526393661+1022
20779MEHEUTGuillaume1:53:06N/A3558N/A
19021CHATREBaptiste1:53:5536883533-155
17851TESSERomain2:04:16N/A3238N/A
20784WUThierry2:06:20N/A3185N/A

  Indice de confiance du circuit (moyenne des différences entre CN et score sur la course des 3 à 10 premiers) : 130






 Retour